Regional Weather Roundup
Issued by NWS

Home | Current Version | Previous Version | Text Only | Print | Product List | Glossary Off
Versions: 1 2 3 4 5 6 7 8 9 10 11 12 13 14 15 16 17 18 19 20 21 22 23 24 25 26 27 28 29 30 31 32 33 34 35 36 37 38 39 40 41 42 43 44 45 46 47 48 49 50

000
ASUS43 KFSD 230410
RWRSD

WEATHER ROUNDUP FOR SOUTH DAKOTA
NATIONAL WEATHER SERVICE SIOUX FALLS SD
1100 PM CDT MON MAY 22 2017

NOTE: "FAIR" INDICATES FEW OR NO CLOUDS BELOW 12,000 FEET WITH NO
SIGNIFICANT WEATHER AND/OR OBSTRUCTIONS TO VISIBILITY.


SDZ001>005-009-010-012>017-230500-
NORTHWEST AND NORTH CENTRAL SOUTH DAKOTA

CITY           SKY/WX    TMP DP  RH WIND       PRES   REMARKS
BUFFALO          N/A     50  41  71 NW13      30.06R
FAITH            N/A     48  39  71 W8        30.07S
MOBRIDGE       CLOUDY    51  42  71 W3        29.97F
$$

SDZ012>016-024>037-041>051-057-063-072>074-230500-
SOUTHWEST AND SOUTH CENTRAL SOUTH DAKOTA

CITY           SKY/WX    TMP DP  RH WIND       PRES   REMARKS
RAPID CTY ARPT MOCLDY    46  40  79 NW8       30.13R
PIERRE         CLOUDY    51  40  65 NW7       30.02R
CUSTER         CLOUDY    37  33  85 N5        30.17S
ELLSWORTH AFB  CLOUDY    46  42  88 W8        30.13R
PHILIP         MOCLDY    49  46  90 W10       30.07R
PINE RIDGE     CLOUDY    43  42  97 SW6       30.14R
SPEARFISH      CLOUDY    45  41  87 W8        30.17R
WINNER         CLOUDY    51  46  83 NW6       30.03R
$$

SDZ004>011-016>023-039-040-230500-
NORTHEAST SOUTH DAKOTA

CITY           SKY/WX    TMP DP  RH WIND       PRES   REMARKS
ABERDEEN       CLOUDY    48  43  82 NW8       29.97R
WATERTOWN      CLOUDY    47  42  83 NW14      29.92S
BROOKINGS      CLOUDY    49  44  83 NW9       29.93R
SISSETON         N/A     48  47  96 N13       29.90S
$$

SDZ017-020-022-023-036>040-048>070-230500-
SOUTHEAST SOUTH DAKOTA

CITY           SKY/WX    TMP DP  RH WIND       PRES   REMARKS
SIOUX FALLS    CLOUDY    50  47  89 W7        29.92F
HURON          CLOUDY    50  44  80 N12       29.98R
CHAMBERLAIN    CLOUDY    56  41  58 N10G21    30.02R
MITCHELL       CLOUDY    53  45  74 N12       29.97R
YANKTON        MOCLDY    48  45  89 SW7       29.96S
$$

ABBREVIATIONS USED IN REMARKS
   TC - TEMPERATURE IN CELSIUS
  WCI - WIND CHILL INDEX
   HX - HEAT INDEX
  VSB - VISIBILITY




USA.gov is the U.S. government's official web portal to all federal, state and local government web resources and services.